SCP
0 0 0 -0 0 0 0 0 0 0 0 -0 0 0 0 0 0 0 0 0 0 0 0 0 0 0 0 0 0 0 0 0 0 0 0 0 0 0 0 0 0 0 0 0
0 0 0 -0 -0 0 0 0 0 0 0 0 0 0 0 0 0 0 0 0 0 0 0 0 0 0 0 0 0 0 0 0 0 0 0 0 0 0 0 0 0 0 0 -0
0 -0 0 0 0 0 0 0 0 0 0 0 0 0 0 0 0 0 0 0 0 0 0 0 0 0 0 0 0 0 0 0 0 0 0 0 0 0 0 0 0 0 0 -0
0 0 0 0 -0 0 0 0 0 0 0 0 0 0 0 0 0 0 0 0 0 0 0 0 0 0 0 0 0 0 0 0 0 0 0 0 0 0 0 0 0 0 0 0
0 0 0 0 0 0 0 0 0 0 0 0 0 0 0 0 0 0 0 0 0 0 0 0 0 0 0 0 0 0 0 0 0 0 0 0 0 0 0 0 0 0 0 0
0 0 0 0 -0 0 0 0 0 0 0 0 0 0 0 0 0 0 0 0 0 0 0 0 0 0 0 0 0 0 0 0 0 0 0 0 0 0 0 0 0 0 0 0
0 0 0 0 0 0 0 0 0 0 0 0 0 0 0 0 0 0 0 0 0 0 0 0 0 0 0 0 0 0 0 0 0 0 0 0 0 0 0 0 0 0 -0 -0
-0 0 0 0 0 0 0 0 0 0 0 0 0 0 0 0 0 0 0 0 0 0 0 0 0 0 0 0 0 0 0 0 0 0 0 0 0 0 0 0 0 0 -0 -0
0 0 0 0 0 0 0 0 0 0 0 0 0 0 0 0 0 0 0 0 0 0 0 0 0 0 0 0 0 0 0 0 0 0 0 0 0 0 0 0 0 0 -0 -0
0 0 0 0 0 0 0 0 0 0 0 0 0 0 0 0 0 0 0 0 0 0 0 0 0 0 0 0 0 0 0 0 0 0 0 0 0 0 0 0 0 0 0 -0
0 0 0 0 0 0 0 0 0 0 0 0 0 0 0 0 0 0 0 0 0 0 0 0 0 0 0 0 0 0 0 0 0 0 0 0 0 0 0 0 0 0 0 0
0 0 0 0 0 0 0 0 0 0 0 0 0 0 0 0 0 0 0 0 0 0 0 0 0 0 0 0 0 0 0 0 0 0 0 0 0 0 0 0 0 0 0 0
0 0 0 0 0 0 0 0 0 0 0 0 0 0 0 0 0 0 0 0 0 0 0 0 0 0 0 0 0 0 0 0 0 0 0 0 0 0 0 0 0 0 -0 -0
0 0 0 0 0 0 0 -0 0 0 0 0 0 0 0 0 0 0 0 0 0 0 0 0 0 0 0 0 0 0 0 0 0 0 0 0 0 0 0 0 0 0 0 0
0 -0 -0 0 0 0 0 0 0 0 0 0 0 0 0 0 0 0 0 0 0 0 0 0 0 0 0 0 0 0 0 0 0 0 0 0 0 0 0 0 0 0 0 0
0 0 0 0 0 0 0 0 0 0 0 0 0 0 0 0 0 0 0 0 0 0 0 0 0 0 0 0 0 0 0 0 0 0 0 0 0 0 0 0 0 0 0 0
0 0 0 0 0 -0 -0 0 0 0 0 0 0 0 0 0 0 0 0 0 0 0 0 0 0 0 0 0 0 0 0 0 0 0 0 0 0 0 0 0 0 0 0 0
0 0 0 0 0 0 0 0 0 0 0 0 0 0 0 0 0 0 0 0 0 0 0 1 0 0 0 0 0 0 0 0 0 0 0 0 0 0 0 0 0 0 0 0
0 0 0 0 0 0 0 0 0 0 0 0 0 0 0 0 0 0 0 0 0 0 0 0 0 0 0 0 0 0 0 0 0 0 0 0 0 0 0 0 0 0 0 0
0 0 0 0 0 0 0 0 0 0 0 0 0 0 0 0 -0 0 0 0 0 -0 0 0 0 0 0 0 0 0 0 0 0 0 0 0 0 0 0 0 0 0 0 0
0 0 0 0 0 0 0 0 0 0 0 0 0 0 0 0 0 0 0 0 0 0 0 0 0 0 0 0 0 0 0 0 0 0 0 0 0 0 0 0 0 0 0 0
0 0 0 0 0 0 0 0 0 0 0 0 0 0 0 0 0 0 0 0 0 0 0 0 0 0 0 0 0 0 0 0 0 0 0 0 0 0 0 0 0 0 0 0
0 0 0 0 0 0 0 0 0 0 0 0 0 0 0 0 0 0 0 0 0 0 0 0 0 0 0 0 0 0 0 0 0 0 0 0 0 0 0 0 0 0 0 0
0 0 0 0 0 0 0 0 0 0 0 0 0 0 0 0 0 0 0 0 0 0 0 -0 -0 0 0 0 0 0 -0 0 0 0 0 0 0 0 0 0 0 0 0 0
0 0 0 0 0 0 0 0 0 0 0 0 0 0 0 0 0 0 0 0 0 0 0 0 0 0 0 0 0 0 0 0 0 0 0 0 0 0 0 0 0 0 0 0
0 0 0 0 0 0 0 0 0 0 0 0 0 0 0 0 0 0 0 0 0 0 0 0 0 -0 -0 0 0 0 -0 0 0 0 0 0 0 0 0 0 0 0 0 0
0 0 0 0 0 0 0 0 0 0 0 0 0 0 0 0 0 0 0 0 0 0 0 -0 -0 0 -0 0 -0 0 0 0 0 0 0 0 0 0 0 0 0 0 0 0
Wind_Speed_500mb
26 33 9 33 7 8 8 3 9 9 25 26 11 8 12 11 14 11 9 7 16 15 14 15 22 21 16 19 22 23 26 31 39 37 31 53 57 62 63 63 68 63 52 44
31 7 2 33 23 8 3 11 8 18 24 13 12 10 11 10 8 11 11 12 15 15 18 15 18 18 17 18 20 23 27 35 39 33 37 44 66 65 59 61 58 50 45 38
11 31 8 9 12 3 6 10 7 7 15 9 13 10 5 3 5 9 10 9 13 11 13 14 16 15 15 17 22 25 31 35 39 37 43 66 67 50 58 56 49 44 38 28
10 5 17 17 26 14 11 11 10 10 7 9 4 8 7 6 6 11 13 14 16 15 16 16 15 14 17 18 23 28 34 35 41 34 51 74 45 54 52 55 56 45 33 35
2 10 11 7 15 8 8 5 13 4 7 9 7 16 5 12 5 6 9 10 13 15 16 18 16 18 18 21 25 30 33 38 38 41 63 47 36 50 49 53 51 41 28 29
9 18 6 15 35 8 9 5 21 11 8 11 10 8 13 7 7 8 9 12 16 17 18 19 19 19 22 25 27 30 33 35 42 48 55 34 34 46 42 48 57 45 29 27
6 7 8 20 15 3 7 10 10 2 10 4 5 9 9 6 5 7 9 13 16 19 21 18 21 21 24 27 30 31 31 32 35 35 37 28 39 38 38 41 46 44 38 33
4 6 8 18 4 9 9 4 1 7 9 9 6 10 10 7 8 8 11 16 17 17 21 21 22 25 27 29 30 30 31 32 33 38 33 29 38 34 33 37 34 34 36 40
13 4 14 15 21 12 7 6 12 11 10 11 10 14 14 8 11 14 16 19 18 18 19 24 25 26 29 32 32 30 31 32 32 33 37 29 34 34 24 32 32 35 41 39
4 9 16 10 10 7 7 8 13 11 10 8 12 16 15 14 17 19 20 23 24 23 22 27 28 29 32 32 30 30 31 32 31 29 25 26 34 24 28 27 31 25 38 39
13 17 8 11 9 11 13 10 10 12 10 9 12 15 17 21 23 24 25 26 27 30 26 27 33 32 31 30 29 30 30 35 22 26 28 30 27 26 32 26 29 30 33 34
7 10 12 16 6 9 11 13 14 14 17 19 21 23 25 29 31 32 30 32 34 40 37 37 32 33 31 29 28 30 31 30 27 26 27 28 26 28 30 29 28 27 28 28
11 7 12 6 7 6 11 17 18 21 25 29 29 28 28 31 33 37 42 44 45 41 40 35 32 33 34 32 31 32 34 37 35 27 27 25 27 26 28 31 30 25 22 22
9 6 8 12 23 22 24 27 27 32 35 36 34 35 30 34 39 35 45 46 40 41 44 34 34 35 34 34 38 37 37 37 40 37 29 30 28 23 28 23 27 27 23 20
20 21 16 19 22 28 36 39 42 41 42 31 27 26 34 22 46 48 33 38 40 43 41 38 40 41 38 38 38 41 39 40 39 42 40 36 35 41 32 34 24 25 25 26
15 23 31 33 32 33 35 38 39 41 37 31 31 31 27 31 31 35 35 37 36 37 43 44 47 47 40 41 44 47 48 48 47 49 47 44 43 39 38 36 30 26 25 30
24 26 28 30 32 32 29 33 35 37 37 36 35 29 34 39 41 45 46 43 41 42 44 49 53 56 53 46 44 46 49 50 51 54 55 51 49 47 45 44 39 34 30 27
18 25 30 45 50 45 47 56 61 66 61 39 45 43 40 56 58 54 55 52 50 56 53 49 53 58 45 45 48 51 54 58 56 57 58 62 63 60 56 50 50 51 44 35
19 23 30 26 30 46 42 46 38 62 55 65 60 46 53 54 76 68 59 63 63 69 65 51 41 46 49 53 52 57 62 57 57 63 64 67 64 56 55 55 57 53 55 50
38 39 35 48 48 55 55 50 48 48 52 53 52 53 61 61 63 67 67 63 62 63 65 45 43 47 57 47 65 70 68 80 74 66 64 66 64 65 67 67 66 60 51 52
42 43 44 46 43 35 42 46 45 45 51 55 58 59 56 50 56 63 64 63 54 56 63 64 67 75 83 70 74 72 79 76 68 69 60 67 77 80 76 67 63 59 70 62
41 39 37 37 39 42 46 46 44 51 53 56 60 58 62 64 68 68 67 70 82 80 84 81 77 76 74 70 67 77 84 81 77 81 77 70 72 73 60 61 62 66 55 54
37 36 36 41 40 39 42 48 53 52 53 51 50 66 71 71 68 74 85 79 83 83 78 73 65 68 76 87 89 88 77 71 77 77 80 75 70 69 68 67 64 46 43 47
33 35 37 38 41 43 48 49 50 48 49 57 65 62 67 76 76 78 83 75 67 79 88 90 88 89 84 73 72 81 84 87 84 77 78 63 66 78 78 60 50 59 55 56
36 37 42 45 42 41 44 50 55 54 55 59 55 61 70 70 67 66 63 78 84 85 91 92 95 96 98 100 85 86 76 61 65 77 62 63 81 63 54 52 51 53 48 39
39 41 42 37 38 48 50 54 53 54 59 56 63 69 64 62 65 74 79 83 85 96 90 87 90 89 86 84 88 77 89 69 71 75 71 68 43 59 50 43 50 59 46 32
35 40 42 40 43 46 49 51 54 55 56 63 67 62 63 63 68 69 74 79 84 86 82 89 95 91 87 89 85 79 86 80 66 54 55 55 44 46 40 48 45 41 34 36
Wind_Direction_500mb
282 288 314 341 192 226 331 337 290 165 144 208 102 47 44 16 359 9 354 345 7 8 351 344 355 354 333 334 331 333 333 331 325 322 316 328 328 322 326 323 321 316 309 293
335 77 143 280 292 197 55 20 320 17 91 69 75 55 35 12 12 11 9 8 344 342 329 342 341 331 329 329 328 329 328 325 329 324 333 324 333 329 334 327 329 327 325 314
247 302 162 296 324 113 228 105 95 342 68 52 33 13 358 64 45 9 343 332 323 338 347 336 330 325 319 326 323 323 322 323 329 330 325 337 336 341 332 340 345 343 338 336
276 332 258 174 240 19 331 110 115 155 86 25 43 305 286 168 57 351 342 336 330 319 324 321 312 308 310 313 318 319 321 330 335 321 332 339 345 337 354 345 346 345 349 341
141 340 289 269 4 324 357 342 151 56 85 13 0 296 330 96 325 321 324 322 313 307 309 310 303 296 299 306 313 317 328 332 327 326 335 341 338 345 356 347 356 358 354 360
134 222 251 227 193 176 282 138 78 64 352 13 5 322 79 25 347 336 345 324 311 308 305 302 298 296 294 298 306 314 324 327 319 327 341 344 334 337 355 356 356 347 348 349
31 291 73 266 106 183 259 88 115 331 327 336 313 353 0 331 345 346 334 322 314 300 295 286 292 290 291 293 298 307 314 319 317 326 344 328 332 340 341 342 354 0 359 354
289 353 6 344 61 28 95 161 302 323 326 324 341 319 295 266 278 291 304 308 307 308 302 292 287 285 285 289 295 304 310 315 316 318 335 307 334 326 335 343 348 352 350 348
15 101 172 63 73 84 49 339 331 332 342 333 315 306 290 280 276 276 292 288 298 297 296 296 290 286 282 286 294 297 305 306 310 313 317 309 328 333 334 342 344 343 349 352
230 139 105 88 102 64 10 347 324 325 319 324 318 305 298 280 274 271 286 293 295 293 298 300 293 284 282 287 289 291 297 297 304 310 308 326 320 328 324 329 342 339 347 1
43 52 37 96 55 16 357 354 336 322 307 299 302 295 288 283 279 280 286 287 291 296 291 296 298 290 286 286 286 286 285 291 304 304 312 310 314 308 310 307 336 350 356 5
65 71 28 71 12 360 356 352 339 323 310 300 289 274 269 267 272 275 281 287 288 286 281 286 286 289 283 281 281 280 276 283 290 287 303 310 311 310 309 313 319 338 355 4
78 104 59 350 321 336 348 325 310 299 294 286 283 279 279 277 297 310 298 285 278 279 276 274 280 284 280 277 273 271 272 272 277 282 283 292 299 300 304 308 309 311 333 352
54 27 338 14 352 334 311 308 304 310 297 285 275 275 258 287 284 285 279 299 295 295 283 272 276 279 274 270 269 270 272 269 267 274 275 273 287 297 303 287 290 303 302 312
350 327 311 329 334 350 349 341 330 318 316 326 327 314 317 292 307 286 297 301 300 294 284 271 276 273 274 268 264 264 266 269 267 268 266 271 273 278 284 274 284 285 288 278
358 3 5 357 346 347 337 329 323 324 324 324 324 319 317 321 305 304 298 293 288 281 278 277 272 274 268 270 264 263 265 266 269 266 263 262 266 268 269 275 277 274 267 272
8 357 351 342 330 321 320 324 321 321 318 317 312 303 293 288 280 278 275 276 275 274 274 272 272 269 263 262 261 263 264 264 265 265 267 260 254 255 260 263 264 269 269 261
351 342 346 360 3 3 349 342 344 340 333 326 338 328 327 328 317 292 278 279 278 277 270 270 278 269 259 263 262 263 260 263 265 262 259 261 250 250 249 248 259 252 252 263
7 360 343 331 341 354 342 324 320 332 320 325 312 318 335 319 306 308 315 309 280 277 275 281 270 278 262 256 258 273 276 273 269 263 261 260 257 254 246 246 249 251 253 248
7 11 349 349 354 356 359 356 358 7 4 1 360 357 355 354 347 345 341 322 322 327 331 320 306 318 305 298 308 298 285 276 268 265 264 263 254 248 249 246 247 248 249 240
5 3 360 1 2 346 348 357 356 1 354 350 356 356 348 343 344 354 354 349 341 331 326 328 329 296 306 312 298 285 280 274 269 273 262 265 263 257 249 251 236 238 243 242
8 10 7 15 14 8 8 5 360 1 359 358 356 349 337 338 337 332 333 341 334 333 328 325 326 320 320 314 297 282 279 273 264 261 262 272 269 266 259 244 253 251 243 244
24 22 16 11 4 357 352 352 349 352 351 356 348 347 344 342 338 339 336 333 332 330 326 325 322 323 319 312 311 308 300 295 276 266 267 264 265 260 256 254 240 232 226 226
12 8 2 354 350 350 352 352 355 355 352 350 347 353 355 349 343 345 344 347 346 341 342 338 335 337 333 322 315 312 310 298 289 298 276 273 274 261 251 234 228 223 227 231
1 358 354 0 6 5 357 352 347 344 347 344 347 352 346 344 339 346 350 347 344 344 341 339 338 337 333 332 326 321 309 309 306 285 296 274 262 265 257 244 234 224 222 213
3 8 4 359 3 355 349 348 347 348 348 353 348 344 343 347 347 347 344 344 344 343 340 338 336 335 330 326 322 318 323 319 308 294 289 278 295 254 255 242 219 206 187 196
1 358 356 355 355 353 352 351 351 348 349 351 348 344 344 345 344 342 341 340 340 336 335 341 342 340 338 332 325 319 324 314 319 316 302 282 293 274 255 242 222 215 189 196
Wind_Speed_850mb
26 33 9 33 7 8 8 3 9 9 25 26 11 8 12 11 14 11 9 7 16 15 14 15 22 21 16 19 22 23 26 31 39 37 31 53 57 62 63 63 68 63 52 44
31 7 2 33 23 8 3 11 8 18 24 13 12 10 11 10 8 11 11 12 15 15 18 15 18 18 17 18 20 23 27 35 39 33 37 44 66 65 59 61 58 50 45 38
11 31 8 9 12 3 6 10 7 7 15 9 13 10 5 3 5 9 10 9 13 11 13 14 16 15 15 17 22 25 31 35 39 37 43 66 67 50 58 56 49 44 38 28
10 5 17 17 26 14 11 11 10 10 7 9 4 8 7 6 6 11 13 14 16 15 16 16 15 14 17 18 23 28 34 35 41 34 51 74 45 54 52 55 56 45 33 35
2 10 11 7 15 8 8 5 13 4 7 9 7 16 5 12 5 6 9 10 13 15 16 18 16 18 18 21 25 30 33 38 38 41 63 47 36 50 49 53 51 41 28 29
9 18 6 15 35 8 9 5 21 11 8 11 10 8 13 7 7 8 9 12 16 17 18 19 19 19 22 25 27 30 33 35 42 48 55 34 34 46 42 48 57 45 29 27
6 7 8 20 15 3 7 10 10 2 10 4 5 9 9 6 5 7 9 13 16 19 21 18 21 21 24 27 30 31 31 32 35 35 37 28 39 38 38 41 46 44 38 33
4 6 8 18 4 9 9 4 1 7 9 9 6 10 10 7 8 8 11 16 17 17 21 21 22 25 27 29 30 30 31 32 33 38 33 29 38 34 33 37 34 34 36 40
13 4 14 15 21 12 7 6 12 11 10 11 10 14 14 8 11 14 16 19 18 18 19 24 25 26 29 32 32 30 31 32 32 33 37 29 34 34 24 32 32 35 41 39
4 9 16 10 10 7 7 8 13 11 10 8 12 16 15 14 17 19 20 23 24 23 22 27 28 29 32 32 30 30 31 32 31 29 25 26 34 24 28 27 31 25 38 39
13 17 8 11 9 11 13 10 10 12 10 9 12 15 17 21 23 24 25 26 27 30 26 27 33 32 31 30 29 30 30 35 22 26 28 30 27 26 32 26 29 30 33 34
7 10 12 16 6 9 11 13 14 14 17 19 21 23 25 29 31 32 30 32 34 40 37 37 32 33 31 29 28 30 31 30 27 26 27 28 26 28 30 29 28 27 28 28
11 7 12 6 7 6 11 17 18 21 25 29 29 28 28 31 33 37 42 44 45 41 40 35 32 33 34 32 31 32 34 37 35 27 27 25 27 26 28 31 30 25 22 22
9 6 8 12 23 22 24 27 27 32 35 36 34 35 30 34 39 35 45 46 40 41 44 34 34 35 34 34 38 37 37 37 40 37 29 30 28 23 28 23 27 27 23 20
20 21 16 19 22 28 36 39 42 41 42 31 27 26 34 22 46 48 33 38 40 43 41 38 40 41 38 38 38 41 39 40 39 42 40 36 35 41 32 34 24 25 25 26
15 23 31 33 32 33 35 38 39 41 37 31 31 31 27 31 31 35 35 37 36 37 43 44 47 47 40 41 44 47 48 48 47 49 47 44 43 39 38 36 30 26 25 30
24 26 28 30 32 32 29 33 35 37 37 36 35 29 34 39 41 45 46 43 41 42 44 49 53 56 53 46 44 46 49 50 51 54 55 51 49 47 45 44 39 34 30 27
18 25 30 45 50 45 47 56 61 66 61 39 45 43 40 56 58 54 55 52 50 56 53 49 53 58 45 45 48 51 54 58 56 57 58 62 63 60 56 50 50 51 44 35
19 23 30 26 30 46 42 46 38 62 55 65 60 46 53 54 76 68 59 63 63 69 65 51 41 46 49 53 52 57 62 57 57 63 64 67 64 56 55 55 57 53 55 50
38 39 35 48 48 55 55 50 48 48 52 53 52 53 61 61 63 67 67 63 62 63 65 45 43 47 57 47 65 70 68 80 74 66 64 66 64 65 67 67 66 60 51 52
42 43 44 46 43 35 42 46 45 45 51 55 58 59 56 50 56 63 64 63 54 56 63 64 67 75 83 70 74 72 79 76 68 69 60 67 77 80 76 67 63 59 70 62
41 39 37 37 39 42 46 46 44 51 53 56 60 58 62 64 68 68 67 70 82 80 84 81 77 76 74 70 67 77 84 81 77 81 77 70 72 73 60 61 62 66 55 54
37 36 36 41 40 39 42 48 53 52 53 51 50 66 71 71 68 74 85 79 83 83 78 73 65 68 76 87 89 88 77 71 77 77 80 75 70 69 68 67 64 46 43 47
33 35 37 38 41 43 48 49 50 48 49 57 65 62 67 76 76 78 83 75 67 79 88 90 88 89 84 73 72 81 84 87 84 77 78 63 66 78 78 60 50 59 55 56
36 37 42 45 42 41 44 50 55 54 55 59 55 61 70 70 67 66 63 78 84 85 91 92 95 96 98 100 85 86 76 61 65 77 62 63 81 63 54 52 51 53 48 39
39 41 42 37 38 48 50 54 53 54 59 56 63 69 64 62 65 74 79 83 85 96 90 87 90 89 86 84 88 77 89 69 71 75 71 68 43 59 50 43 50 59 46 32
35 40 42 40 43 46 49 51 54 55 56 63 67 62 63 63 68 69 74 79 84 86 82 89 95 91 87 89 85 79 86 80 66 54 55 55 44 46 40 48 45 41 34 36
Wind_Direction_850mb
282 288 314 341 192 226 331 337 290 165 144 208 102 47 44 16 359 9 354 345 7 8 351 344 355 354 333 334 331 333 333 331 325 322 316 328 328 322 326 323 321 316 309 293
335 77 143 280 292 197 55 20 320 17 91 69 75 55 35 12 12 11 9 8 344 342 329 342 341 331 329 329 328 329 328 325 329 324 333 324 333 329 334 327 329 327 325 314
247 302 162 296 324 113 228 105 95 342 68 52 33 13 358 64 45 9 343 332 323 338 347 336 330 325 319 326 323 323 322 323 329 330 325 337 336 341 332 340 345 343 338 336
276 332 258 174 240 19 331 110 115 155 86 25 43 305 286 168 57 351 342 336 330 319 324 321 312 308 310 313 318 319 321 330 335 321 332 339 345 337 354 345 346 345 349 341
141 340 289 269 4 324 357 342 151 56 85 13 0 296 330 96 325 321 324 322 313 307 309 310 303 296 299 306 313 317 328 332 327 326 335 341 338 345 356 347 356 358 354 360
134 222 251 227 193 176 282 138 78 64 352 13 5 322 79 25 347 336 345 324 311 308 305 302 298 296 294 298 306 314 324 327 319 327 341 344 334 337 355 356 356 347 348 349
31 291 73 266 106 183 259 88 115 331 327 336 313 353 0 331 345 346 334 322 314 300 295 286 292 290 291 293 298 307 314 319 317 326 344 328 332 340 341 342 354 0 359 354
289 353 6 344 61 28 95 161 302 323 326 324 341 319 295 266 278 291 304 308 307 308 302 292 287 285 285 289 295 304 310 315 316 318 335 307 334 326 335 343 348 352 350 348
15 101 172 63 73 84 49 339 331 332 342 333 315 306 290 280 276 276 292 288 298 297 296 296 290 286 282 286 294 297 305 306 310 313 317 309 328 333 334 342 344 343 349 352
230 139 105 88 102 64 10 347 324 325 319 324 318 305 298 280 274 271 286 293 295 293 298 300 293 284 282 287 289 291 297 297 304 310 308 326 320 328 324 329 342 339 347 1
43 52 37 96 55 16 357 354 336 322 307 299 302 295 288 283 279 280 286 287 291 296 291 296 298 290 286 286 286 286 285 291 304 304 312 310 314 308 310 307 336 350 356 5
65 71 28 71 12 360 356 352 339 323 310 300 289 274 269 267 272 275 281 287 288 286 281 286 286 289 283 281 281 280 276 283 290 287 303 310 311 310 309 313 319 338 355 4
78 104 59 350 321 336 348 325 310 299 294 286 283 279 279 277 297 310 298 285 278 279 276 274 280 284 280 277 273 271 272 272 277 282 283 292 299 300 304 308 309 311 333 352
54 27 338 14 352 334 311 308 304 310 297 285 275 275 258 287 284 285 279 299 295 295 283 272 276 279 274 270 269 270 272 269 267 274 275 273 287 297 303 287 290 303 302 312
350 327 311 329 334 350 349 341 330 318 316 326 327 314 317 292 307 286 297 301 300 294 284 271 276 273 274 268 264 264 266 269 267 268 266 271 273 278 284 274 284 285 288 278
358 3 5 357 346 347 337 329 323 324 324 324 324 319 317 321 305 304 298 293 288 281 278 277 272 274 268 270 264 263 265 266 269 266 263 262 266 268 269 275 277 274 267 272
8 357 351 342 330 321 320 324 321 321 318 317 312 303 293 288 280 278 275 276 275 274 274 272 272 269 263 262 261 263 264 264 265 265 267 260 254 255 260 263 264 269 269 261
351 342 346 360 3 3 349 342 344 340 333 326 338 328 327 328 317 292 278 279 278 277 270 270 278 269 259 263 262 263 260 263 265 262 259 261 250 250 249 248 259 252 252 263
7 360 343 331 341 354 342 324 320 332 320 325 312 318 335 319 306 308 315 309 280 277 275 281 270 278 262 256 258 273 276 273 269 263 261 260 257 254 246 246 249 251 253 248
7 11 349 349 354 356 359 356 358 7 4 1 360 357 355 354 347 345 341 322 322 327 331 320 306 318 305 298 308 298 285 276 268 265 264 263 254 248 249 246 247 248 249 240
5 3 360 1 2 346 348 357 356 1 354 350 356 356 348 343 344 354 354 349 341 331 326 328 329 296 306 312 298 285 280 274 269 273 262 265 263 257 249 251 236 238 243 242
8 10 7 15 14 8 8 5 360 1 359 358 356 349 337 338 337 332 333 341 334 333 328 325 326 320 320 314 297 282 279 273 264 261 262 272 269 266 259 244 253 251 243 244
24 22 16 11 4 357 352 352 349 352 351 356 348 347 344 342 338 339 336 333 332 330 326 325 322 323 319 312 311 308 300 295 276 266 267 264 265 260 256 254 240 232 226 226
12 8 2 354 350 350 352 352 355 355 352 350 347 353 355 349 343 345 344 347 346 341 342 338 335 337 333 322 315 312 310 298 289 298 276 273 274 261 251 234 228 223 227 231
1 358 354 0 6 5 357 352 347 344 347 344 347 352 346 344 339 346 350 347 344 344 341 339 338 337 333 332 326 321 309 309 306 285 296 274 262 265 257 244 234 224 222 213
3 8 4 359 3 355 349 348 347 348 348 353 348 344 343 347 347 347 344 344 344 343 340 338 336 335 330 326 322 318 323 319 308 294 289 278 295 254 255 242 219 206 187 196
1 358 356 355 355 353 352 351 351 348 349 351 348 344 344 345 344 342 341 340 340 336 335 341 342 340 338 332 325 319 324 314 319 316 302 282 293 274 255 242 222 215 189 196